Time,TemperatureF,DewpointF,PressureIn,WindDirection,WindDirectionDegrees,WindSpeedMPH,WindSpeedGustMPH,Humidity,HourlyPrecipIn,Conditions,Clouds,dailyrainin,SolarRadiationWatts/m^2,SoftwareType,DateUTC
2013-02-22 00:00:00,44.3,35.9,30.03,SE,141,4.0,4.0,72,0.00,,,0.00,0,WeatherCatV1.11B39,2013-02-22 07:00:00,
2013-02-22 00:05:00,44.5,35.3,30.03,ESE,117,4.0,6.0,70,0.00,,,0.00,0,WeatherCatV1.11B39,2013-02-22 07:05:00,
2013-02-22 00:10:00,44.5,35.3,30.03,SE,125,3.0,4.0,70,0.00,,,0.00,0,WeatherCatV1.11B39,2013-02-22 07:10:00,
2013-02-22 00:15:00,44.4,35.2,30.03,SE,128,2.0,6.0,70,0.00,,,0.00,0,WeatherCatV1.11B39,2013-02-22 07:15:00,
2013-02-22 00:20:00,44.2,35.0,30.03,SE,129,1.0,1.0,70,0.00,,,0.00,0,WeatherCatV1.11B39,2013-02-22 07:20:00,
2013-02-22 00:25:00,43.9,35.1,30.03,SE,129,0.0,0.0,71,0.00,,,0.00,0,WeatherCatV1.11B39,2013-02-22 07:25:00,
2013-02-22 00:30:00,43.8,35.0,30.03,ESE,103,2.0,6.0,71,0.00,,,0.00,0,WeatherCatV1.11B39,2013-02-22 07:30:00,
2013-02-22 00:35:00,43.7,35.3,30.03,East,101,0.0,3.0,72,0.00,,,0.00,0,WeatherCatV1.11B39,2013-02-22 07:35:00,
2013-02-22 00:40:00,43.5,35.1,30.03,SE,132,3.0,4.0,72,0.00,,,0.00,0,WeatherCatV1.11B39,2013-02-22 07:40:00,
2013-02-22 00:45:00,43.3,35.2,30.02,SE,129,3.0,3.0,73,0.00,,,0.00,0,WeatherCatV1.11B39,2013-02-22 07:45:00,
2013-02-22 00:50:00,43.1,35.0,30.02,ESE,122,6.0,6.0,73,0.00,,,0.00,0,WeatherCatV1.11B39,2013-02-22 07:50:00,
2013-02-22 00:55:00,42.9,35.2,30.03,East,101,2.0,5.0,74,0.00,,,0.00,0,WeatherCatV1.11B39,2013-02-22 07:55:00,
2013-02-22 01:00:00,42.8,35.1,30.03,East,99,2.0,3.0,74,0.00,,,0.00,0,WeatherCatV1.11B39,2013-02-22 08:00:00,
2013-02-22 01:05:00,42.7,35.0,30.02,East,99,1.0,3.0,74,0.00,,,0.00,0,WeatherCatV1.11B39,2013-02-22 08:05:00,
2013-02-22 01:10:00,42.5,34.8,30.02,East,99,0.0,0.0,74,0.00,,,0.00,0,WeatherCatV1.11B39,2013-02-22 08:10:00,
2013-02-22 01:15:00,42.4,35.0,30.02,East,99,0.0,0.0,75,0.00,,,0.00,0,WeatherCatV1.11B39,2013-02-22 08:15:00,
2013-02-22 01:20:00,42.0,34.7,30.02,East,99,2.0,2.0,75,0.00,,,0.00,0,WeatherCatV1.11B39,2013-02-22 08:20:00,
2013-02-22 01:25:00,41.5,34.8,30.02,East,99,0.0,1.0,77,0.00,,,0.00,0,WeatherCatV1.11B39,2013-02-22 08:25:00,
2013-02-22 01:30:00,40.9,34.6,30.02,East,99,0.0,0.0,78,0.00,,,0.00,0,WeatherCatV1.11B39,2013-02-22 08:30:00,
2013-02-22 01:35:00,40.4,34.7,30.02,East,99,1.0,2.0,80,0.00,,,0.00,0,WeatherCatV1.11B39,2013-02-22 08:35:00,
2013-02-22 01:40:00,40.0,34.6,30.02,East,99,0.0,1.0,81,0.00,,,0.00,0,WeatherCatV1.11B39,2013-02-22 08:40:00,
2013-02-22 01:45:00,39.6,34.3,30.02,East,99,0.0,1.0,81,0.00,,,0.00,0,WeatherCatV1.11B39,2013-02-22 08:45:00,
2013-02-22 01:50:00,39.2,33.9,30.02,East,99,0.0,1.0,81,0.00,,,0.00,0,WeatherCatV1.11B39,2013-02-22 08:50:00,
2013-02-22 01:55:00,38.8,34.1,30.02,East,99,0.0,0.0,83,0.00,,,0.00,0,WeatherCatV1.11B39,2013-02-22 08:55:00,
2013-02-22 02:00:00,38.4,34.0,30.02,East,99,0.0,0.0,84,0.00,,,0.00,0,WeatherCatV1.11B39,2013-02-22 09:00:00,
2013-02-22 02:05:00,38.1,33.7,30.02,East,99,2.0,3.0,84,0.00,,,0.00,0,WeatherCatV1.11B39,2013-02-22 09:05:00,
2013-02-22 02:10:00,38.1,34.0,30.02,East,101,2.0,4.0,85,0.00,,,0.00,0,WeatherCatV1.11B39,2013-02-22 09:10:00,
2013-02-22 02:15:00,38.2,34.4,30.02,West,275,2.0,3.0,86,0.00,,,0.00,0,WeatherCatV1.11B39,2013-02-22 09:15:00,
2013-02-22 02:20:00,38.5,34.7,30.02,West,275,1.0,2.0,86,0.00,,,0.00,0,WeatherCatV1.11B39,2013-02-22 09:20:00,
2013-02-22 02:25:00,38.6,34.8,30.03,West,275,0.0,2.0,86,0.00,,,0.00,0,WeatherCatV1.11B39,2013-02-22 09:25:00,
2013-02-22 02:30:00,38.7,34.9,30.03,West,275,0.0,0.0,86,0.00,,,0.00,0,WeatherCatV1.11B39,2013-02-22 09:30:00,
2013-02-22 02:35:00,38.7,34.9,30.03,West,275,0.0,0.0,86,0.00,,,0.00,0,WeatherCatV1.11B39,2013-02-22 09:35:00,
2013-02-22 02:40:00,38.8,35.0,30.03,West,275,0.0,0.0,86,0.00,,,0.00,0,WeatherCatV1.11B39,2013-02-22 09:40:00,
2013-02-22 02:45:00,38.9,35.1,30.03,West,275,0.0,0.0,86,0.00,,,0.00,0,WeatherCatV1.11B39,2013-02-22 09:45:00,
2013-02-22 02:50:00,39.1,35.3,30.03,West,275,0.0,1.0,86,0.00,,,0.00,0,WeatherCatV1.11B39,2013-02-22 09:50:00,
2013-02-22 02:55:00,39.2,35.4,30.03,West,275,0.0,1.0,86,0.00,,,0.00,0,WeatherCatV1.11B39,2013-02-22 09:55:00,
2013-02-22 03:00:00,39.3,35.5,30.03,West,275,0.0,0.0,86,0.00,,,0.00,0,WeatherCatV1.11B39,2013-02-22 10:00:00,
2013-02-22 03:05:00,39.4,35.6,30.03,West,275,1.0,1.0,86,0.00,,,0.00,0,WeatherCatV1.11B39,2013-02-22 10:05:00,
2013-02-22 03:10:00,39.3,35.8,30.03,West,275,0.0,2.0,87,0.00,,,0.00,0,WeatherCatV1.11B39,2013-02-22 10:10:00,
2013-02-22 03:15:00,39.3,35.8,30.03,West,275,0.0,0.0,87,0.00,,,0.00,0,WeatherCatV1.11B39,2013-02-22 10:15:00,
2013-02-22 03:20:00,39.2,35.4,30.03,West,275,1.0,1.0,86,0.00,,,0.00,0,WeatherCatV1.11B39,2013-02-22 10:20:00,
2013-02-22 03:25:00,39.1,35.3,30.03,West,275,0.0,2.0,86,0.00,,,0.00,0,WeatherCatV1.11B39,2013-02-22 10:25:00,
2013-02-22 03:30:00,38.9,35.1,30.02,West,275,0.0,1.0,86,0.00,,,0.00,0,WeatherCatV1.11B39,2013-02-22 10:30:00,
2013-02-22 03:35:00,38.8,35.0,30.02,West,275,0.0,1.0,86,0.00,,,0.00,0,WeatherCatV1.11B39,2013-02-22 10:35:00,
2013-02-22 03:40:00,38.7,34.9,30.02,West,276,0.0,1.0,86,0.00,,,0.00,0,WeatherCatV1.11B39,2013-02-22 10:40:00,
2013-02-22 03:45:00,38.6,34.8,30.02,West,276,0.0,0.0,86,0.00,,,0.00,0,WeatherCatV1.11B39,2013-02-22 10:45:00,
2013-02-22 03:50:00,38.4,34.6,30.03,West,276,0.0,1.0,86,0.00,,,0.00,0,WeatherCatV1.11B39,2013-02-22 10:50:00,
2013-02-22 03:55:00,38.3,34.5,30.03,West,276,0.0,1.0,86,0.00,,,0.00,0,WeatherCatV1.11B39,2013-02-22 10:55:00,
2013-02-22 04:00:00,38.1,34.0,30.03,West,276,1.0,2.0,85,0.00,,,0.00,0,WeatherCatV1.11B39,2013-02-22 11:00:00,
2013-02-22 04:05:00,37.8,33.7,30.03,West,276,0.0,0.0,85,0.00,,,0.00,0,WeatherCatV1.11B39,2013-02-22 11:05:00,
2013-02-22 04:10:00,37.7,33.6,30.03,West,276,0.0,1.0,85,0.00,,,0.00,0,WeatherCatV1.11B39,2013-02-22 11:10:00,
2013-02-22 04:15:00,37.5,33.7,30.03,West,276,0.0,1.0,86,0.00,,,0.00,0,WeatherCatV1.11B39,2013-02-22 11:15:00,
2013-02-22 04:20:00,37.4,33.6,30.04,West,276,1.0,1.0,86,0.00,,,0.00,0,WeatherCatV1.11B39,2013-02-22 11:20:00,
2013-02-22 04:25:00,37.2,33.4,30.04,West,277,2.0,2.0,86,0.00,,,0.00,0,WeatherCatV1.11B39,2013-02-22 11:25:00,
2013-02-22 04:30:00,37.0,33.5,30.04,West,277,0.0,1.0,87,0.00,,,0.00,0,WeatherCatV1.11B39,2013-02-22 11:30:00,
2013-02-22 04:35:00,36.9,33.4,30.04,West,277,1.0,2.0,87,0.00,,,0.00,0,WeatherCatV1.11B39,2013-02-22 11:35:00,
2013-02-22 04:40:00,36.8,33.3,30.04,South,190,1.0,3.0,87,0.00,,,0.00,0,WeatherCatV1.11B39,2013-02-22 11:40:00,
2013-02-22 04:45:00,36.7,33.5,30.04,South,185,2.0,2.0,88,0.00,,,0.00,0,WeatherCatV1.11B39,2013-02-22 11:45:00,
2013-02-22 04:50:00,36.6,33.4,30.04,South,185,0.0,2.0,88,0.00,,,0.00,0,WeatherCatV1.11B39,2013-02-22 11:50:00,
2013-02-22 04:55:00,36.3,33.4,30.04,South,185,0.0,2.0,89,0.00,,,0.00,0,WeatherCatV1.11B39,2013-02-22 11:55:00,
2013-02-22 05:00:00,36.2,33.3,30.05,South,185,1.0,2.0,89,0.00,,,0.00,0,WeatherCatV1.11B39,2013-02-22 12:00:00,
2013-02-22 05:05:00,36.0,33.4,30.05,South,185,0.0,2.0,90,0.00,,,0.00,0,WeatherCatV1.11B39,2013-02-22 12:05:00,
2013-02-22 05:10:00,36.0,33.4,30.05,South,184,0.0,1.0,90,0.00,,,0.00,0,WeatherCatV1.11B39,2013-02-22 12:10:00,
2013-02-22 05:15:00,35.9,33.3,30.05,South,184,1.0,2.0,90,0.00,,,0.00,0,WeatherCatV1.11B39,2013-02-22 12:15:00,
2013-02-22 05:20:00,35.7,33.1,30.05,South,184,1.0,1.0,90,0.00,,,0.00,0,WeatherCatV1.11B39,2013-02-22 12:20:00,
2013-02-22 05:25:00,35.5,32.9,30.06,South,184,0.0,1.0,90,0.00,,,0.00,0,WeatherCatV1.11B39,2013-02-22 12:25:00,
2013-02-22 05:30:00,35.3,32.9,30.06,South,184,1.0,1.0,91,0.00,,,0.00,0,WeatherCatV1.11B39,2013-02-22 12:30:00,
2013-02-22 05:35:00,35.3,32.9,30.06,South,184,0.0,0.0,91,0.00,,,0.00,0,WeatherCatV1.11B39,2013-02-22 12:35:00,
2013-02-22 05:40:00,35.0,32.6,30.06,South,184,0.0,0.0,91,0.00,,,0.00,0,WeatherCatV1.11B39,2013-02-22 12:40:00,
2013-02-22 05:45:00,34.7,32.3,30.06,South,184,0.0,1.0,91,0.00,,,0.00,0,WeatherCatV1.11B39,2013-02-22 12:45:00,
2013-02-22 05:50:00,34.4,32.0,30.07,South,184,1.0,2.0,91,0.00,,,0.00,0,WeatherCatV1.11B39,2013-02-22 12:50:00,
2013-02-22 05:55:00,34.3,32.2,30.07,South,184,0.0,1.0,92,0.00,,,0.00,0,WeatherCatV1.11B39,2013-02-22 12:55:00,
2013-02-22 06:00:00,34.9,33.1,30.07,South,184,1.0,2.0,93,0.00,,,0.00,0,WeatherCatV1.11B39,2013-02-22 13:00:00,
2013-02-22 06:05:00,35.4,33.6,30.08,South,184,0.0,0.0,93,0.00,,,0.00,0,WeatherCatV1.11B39,2013-02-22 13:05:00,
2013-02-22 06:10:00,35.8,34.0,30.08,South,183,2.0,2.0,93,0.00,,,0.00,0,WeatherCatV1.11B39,2013-02-22 13:10:00,
2013-02-22 06:15:00,35.9,34.1,30.08,South,183,1.0,2.0,93,0.00,,,0.00,0,WeatherCatV1.11B39,2013-02-22 13:15:00,
2013-02-22 06:20:00,36.1,34.3,30.08,South,183,1.0,1.0,93,0.00,,,0.00,0,WeatherCatV1.11B39,2013-02-22 13:20:00,
2013-02-22 06:25:00,36.3,34.5,30.09,South,183,1.0,2.0,93,0.00,,,0.00,0,WeatherCatV1.11B39,2013-02-22 13:25:00,
2013-02-22 06:30:00,36.4,34.6,30.09,South,183,0.0,1.0,93,0.00,,,0.00,0,WeatherCatV1.11B39,2013-02-22 13:30:00,
2013-02-22 06:35:00,36.4,34.6,30.09,South,183,1.0,1.0,93,0.00,,,0.00,0,WeatherCatV1.11B39,2013-02-22 13:35:00,
2013-02-22 06:40:00,36.4,34.6,30.09,South,183,0.0,0.0,93,0.00,,,0.00,0,WeatherCatV1.11B39,2013-02-22 13:40:00,
2013-02-22 06:45:00,36.6,34.8,30.09,South,183,1.0,2.0,93,0.00,,,0.00,0,WeatherCatV1.11B39,2013-02-22 13:45:00,
2013-02-22 06:50:00,36.8,35.0,30.09,South,183,0.0,0.0,93,0.00,,,0.00,0,WeatherCatV1.11B39,2013-02-22 13:50:00,
2013-02-22 06:55:00,36.9,35.1,30.09,South,183,0.0,0.0,93,0.00,,,0.00,0,WeatherCatV1.11B39,2013-02-22 13:55:00,
2013-02-22 07:00:00,37.2,35.6,30.10,South,182,0.0,1.0,94,0.00,,,0.00,0,WeatherCatV1.11B39,2013-02-22 14:00:00,
2013-02-22 07:05:00,37.5,35.9,30.10,South,182,0.0,1.0,94,0.00,,,0.00,0,WeatherCatV1.11B39,2013-02-22 14:05:00,
2013-02-22 07:10:00,37.8,36.2,30.10,South,182,0.0,0.0,94,0.00,,,0.00,5,WeatherCatV1.11B39,2013-02-22 14:10:00,
2013-02-22 07:15:00,37.9,36.1,30.10,South,182,0.0,0.0,93,0.00,,,0.00,7,WeatherCatV1.11B39,2013-02-22 14:15:00,
2013-02-22 07:20:00,38.2,36.4,30.11,South,182,0.0,0.0,93,0.00,,,0.00,12,WeatherCatV1.11B39,2013-02-22 14:20:00,
2013-02-22 07:25:00,38.3,36.5,30.11,South,182,0.0,1.0,93,0.00,,,0.00,16,WeatherCatV1.11B39,2013-02-22 14:25:00,
2013-02-22 07:30:00,38.6,36.8,30.11,South,182,1.0,1.0,93,0.00,,,0.00,19,WeatherCatV1.11B39,2013-02-22 14:30:00,
2013-02-22 07:35:00,38.8,37.0,30.11,South,182,0.0,2.0,93,0.00,,,0.00,23,WeatherCatV1.11B39,2013-02-22 14:35:00,
2013-02-22 07:40:00,38.9,37.1,30.11,SSE,147,2.0,3.0,93,0.00,,,0.00,21,WeatherCatV1.11B39,2013-02-22 14:40:00,
2013-02-22 07:45:00,39.1,37.2,30.11,SE,146,0.0,0.0,93,0.00,,,0.00,28,WeatherCatV1.11B39,2013-02-22 14:45:00,
2013-02-22 07:50:00,39.4,37.3,30.12,SE,146,0.0,0.0,92,0.00,,,0.00,33,WeatherCatV1.11B39,2013-02-22 14:50:00,
2013-02-22 07:55:00,39.7,37.3,30.12,SE,146,1.0,2.0,91,0.00,,,0.00,40,WeatherCatV1.11B39,2013-02-22 14:55:00,
2013-02-22 08:00:00,39.9,37.5,30.13,SE,146,0.0,1.0,91,0.00,,,0.00,47,WeatherCatV1.11B39,2013-02-22 15:00:00,
2013-02-22 08:05:00,40.1,37.4,30.13,SE,146,0.0,3.0,90,0.00,,,0.00,49,WeatherCatV1.11B39,2013-02-22 15:05:00,
2013-02-22 08:10:00,40.3,37.3,30.13,SSE,147,2.0,3.0,89,0.00,,,0.00,62,WeatherCatV1.11B39,2013-02-22 15:10:00,
2013-02-22 08:15:00,40.4,37.1,30.13,SSE,147,2.0,3.0,88,0.00,,,0.00,65,WeatherCatV1.11B39,2013-02-22 15:15:00,
2013-02-22 08:20:00,40.5,36.9,30.14,SE,145,1.0,3.0,87,0.00,,,0.00,65,WeatherCatV1.11B39,2013-02-22 15:20:00,
2013-02-22 08:25:00,40.6,37.0,30.14,SE,145,0.0,0.0,87,0.00,,,0.00,65,WeatherCatV1.11B39,2013-02-22 15:25:00,
2013-02-22 08:30:00,40.6,36.7,30.13,SE,145,0.0,2.0,86,0.00,,,0.00,76,WeatherCatV1.11B39,2013-02-22 15:30:00,
2013-02-22 08:35:00,40.8,36.9,30.14,SE,144,3.0,3.0,86,0.00,,,0.00,83,WeatherCatV1.11B39,2013-02-22 15:35:00,
2013-02-22 08:40:00,40.8,36.6,30.14,SE,134,0.0,1.0,85,0.00,,,0.00,86,WeatherCatV1.11B39,2013-02-22 15:40:00,
2013-02-22 08:45:00,40.9,36.7,30.14,SE,134,0.0,3.0,85,0.00,,,0.00,107,WeatherCatV1.11B39,2013-02-22 15:45:00,
2013-02-22 08:50:00,41.1,36.9,30.14,SE,130,1.0,3.0,85,0.00,,,0.00,125,WeatherCatV1.11B39,2013-02-22 15:50:00,
2013-02-22 08:55:00,41.6,37.7,30.14,SE,129,0.0,2.0,86,0.00,,,0.00,128,WeatherCatV1.11B39,2013-02-22 15:55:00,
2013-02-22 09:00:00,41.8,37.3,30.14,SE,129,0.0,2.0,84,0.00,,,0.00,128,WeatherCatV1.11B39,2013-02-22 16:00:00,
2013-02-22 09:05:00,41.8,37.3,30.14,SE,128,4.0,4.0,84,0.00,,,0.00,148,WeatherCatV1.11B39,2013-02-22 16:05:00,
2013-02-22 09:10:00,41.9,37.1,30.15,SE,124,3.0,3.0,83,0.00,,,0.00,151,WeatherCatV1.11B39,2013-02-22 16:10:00,
2013-02-22 09:15:00,41.6,36.5,30.14,SE,124,1.0,1.0,82,0.00,,,0.00,155,WeatherCatV1.11B39,2013-02-22 16:15:00,
2013-02-22 09:20:00,42.0,37.5,30.15,SE,124,0.0,1.0,84,0.00,,,0.00,162,WeatherCatV1.11B39,2013-02-22 16:20:00,
2013-02-22 09:25:00,42.2,37.4,30.15,SE,124,0.0,3.0,83,0.00,,,0.00,197,WeatherCatV1.11B39,2013-02-22 16:25:00,
2013-02-22 09:30:00,42.3,36.9,30.15,SE,124,0.0,2.0,81,0.00,,,0.00,237,WeatherCatV1.11B39,2013-02-22 16:30:00,
2013-02-22 09:35:00,42.3,36.6,30.15,SE,124,0.0,3.0,80,0.00,,,0.00,302,WeatherCatV1.11B39,2013-02-22 16:35:00,
2013-02-22 09:40:00,42.8,37.4,30.15,SE,124,0.0,1.0,81,0.00,,,0.00,274,WeatherCatV1.11B39,2013-02-22 16:40:00,
2013-02-22 09:45:00,43.4,37.6,30.15,ESE,113,1.0,4.0,80,0.00,,,0.00,292,WeatherCatV1.11B39,2013-02-22 16:45:00,
2013-02-22 09:50:00,44.0,37.6,30.15,ENE,78,6.0,6.0,78,0.00,,,0.00,322,WeatherCatV1.11B39,2013-02-22 16:50:00,
2013-02-22 09:55:00,44.1,38.0,30.15,ENE,78,0.0,3.0,79,0.00,,,0.00,387,WeatherCatV1.11B39,2013-02-22 16:55:00,
2013-02-22 10:00:00,43.8,37.4,30.15,ENE,76,3.0,3.0,78,0.00,,,0.00,325,WeatherCatV1.11B39,2013-02-22 17:00:00,
2013-02-22 10:05:00,43.7,37.3,30.16,ENE,76,0.0,3.0,78,0.00,,,0.00,274,WeatherCatV1.11B39,2013-02-22 17:05:00,
2013-02-22 10:10:00,44.2,37.8,30.16,ENE,70,5.0,5.0,78,0.00,,,0.00,250,WeatherCatV1.11B39,2013-02-22 17:10:00,
2013-02-22 10:15:00,43.9,37.2,30.16,NE,55,0.0,1.0,77,0.00,,,0.00,258,WeatherCatV1.11B39,2013-02-22 17:15:00,
2013-02-22 10:20:00,44.2,37.5,30.16,NE,54,2.0,3.0,77,0.00,,,0.00,267,WeatherCatV1.11B39,2013-02-22 17:20:00,
2013-02-22 10:25:00,44.2,37.8,30.16,NE,55,0.0,3.0,78,0.00,,,0.00,747,WeatherCatV1.11B39,2013-02-22 17:25:00,
2013-02-22 10:30:00,45.2,38.1,30.16,NW,312,2.0,4.0,76,0.00,,,0.00,700,WeatherCatV1.11B39,2013-02-22 17:30:00,
2013-02-22 10:35:00,45.0,37.2,30.16,NW,321,1.0,4.0,74,0.00,,,0.00,309,WeatherCatV1.11B39,2013-02-22 17:35:00,
2013-02-22 10:40:00,45.1,37.7,30.16,NW,311,3.0,4.0,75,0.00,,,0.00,248,WeatherCatV1.11B39,2013-02-22 17:40:00,
2013-02-22 10:45:00,45.0,37.6,30.16,NW,311,2.0,4.0,75,0.00,,,0.00,213,WeatherCatV1.11B39,2013-02-22 17:45:00,
2013-02-22 10:50:00,45.6,38.1,30.16,NW,308,2.0,3.0,75,0.00,,,0.00,211,WeatherCatV1.11B39,2013-02-22 17:50:00,
2013-02-22 10:55:00,46.1,38.6,30.16,WNW,299,3.0,4.0,75,0.00,,,0.00,232,WeatherCatV1.11B39,2013-02-22 17:55:00,
2013-02-22 11:00:00,47.9,39.0,30.16,NW,317,4.0,6.0,71,0.00,,,0.00,766,WeatherCatV1.11B39,2013-02-22 18:00:00,
2013-02-22 11:05:00,47.8,37.8,30.15,NW,309,2.0,7.0,68,0.00,,,0.00,752,WeatherCatV1.11B39,2013-02-22 18:05:00,
2013-02-22 11:10:00,47.4,37.7,30.15,West,261,2.0,5.0,69,0.00,,,0.00,777,WeatherCatV1.11B39,2013-02-22 18:10:00,
2013-02-22 11:15:00,48.4,39.1,30.15,West,281,1.0,5.0,70,0.00,,,0.00,803,WeatherCatV1.11B39,2013-02-22 18:15:00,
2013-02-22 11:20:00,47.9,37.9,30.15,SSW,203,3.0,5.0,68,0.00,,,0.00,171,WeatherCatV1.11B39,2013-02-22 18:20:00,
2013-02-22 11:25:00,48.4,38.3,30.15,South,182,5.0,5.0,68,0.00,,,0.00,814,WeatherCatV1.11B39,2013-02-22 18:25:00,
2013-02-22 11:30:00,48.4,37.6,30.15,SSE,156,2.0,4.0,66,0.00,,,0.00,821,WeatherCatV1.11B39,2013-02-22 18:30:00,
2013-02-22 11:35:00,48.2,37.4,30.15,WSW,251,6.0,6.0,66,0.00,,,0.00,179,WeatherCatV1.11B39,2013-02-22 18:35:00,
2013-02-22 11:40:00,47.9,37.5,30.16,WSW,249,2.0,3.0,67,0.00,,,0.00,817,WeatherCatV1.11B39,2013-02-22 18:40:00,
2013-02-22 11:45:00,49.8,38.5,30.15,WSW,249,0.0,1.0,65,0.00,,,0.00,816,WeatherCatV1.11B39,2013-02-22 18:45:00,
2013-02-22 11:50:00,50.2,38.1,30.15,SSW,192,5.0,6.0,63,0.00,,,0.00,800,WeatherCatV1.11B39,2013-02-22 18:50:00,
2013-02-22 11:55:00,50.5,37.6,30.15,West,276,4.0,6.0,61,0.00,,,0.00,810,WeatherCatV1.11B39,2013-02-22 18:55:00,
2013-02-22 12:00:00,49.7,36.0,30.15,WNW,285,1.0,3.0,59,0.00,,,0.00,821,WeatherCatV1.11B39,2013-02-22 19:00:00,
2013-02-22 12:05:00,50.4,37.0,30.15,West,274,5.0,7.0,60,0.00,,,0.00,809,WeatherCatV1.11B39,2013-02-22 19:05:00,
2013-02-22 12:10:00,50.3,36.1,30.15,SSE,158,2.0,7.0,58,0.00,,,0.00,809,WeatherCatV1.11B39,2013-02-22 19:10:00,
2013-02-22 12:15:00,50.8,36.6,30.14,West,272,4.0,6.0,58,0.00,,,0.00,812,WeatherCatV1.11B39,2013-02-22 19:15:00,
2013-02-22 12:20:00,50.9,36.7,30.14,SSE,166,4.0,4.0,58,0.00,,,0.00,809,WeatherCatV1.11B39,2013-02-22 19:20:00,
2013-02-22 12:25:00,51.0,36.7,30.14,South,183,2.0,2.0,58,0.00,,,0.00,796,WeatherCatV1.11B39,2013-02-22 19:25:00,
2013-02-22 12:30:00,50.9,36.7,30.14,West,259,3.0,7.0,58,0.00,,,0.00,807,WeatherCatV1.11B39,2013-02-22 19:30:00,
2013-02-22 12:35:00,51.2,36.0,30.13,WNW,284,0.0,4.0,56,0.00,,,0.00,817,WeatherCatV1.11B39,2013-02-22 19:35:00,
2013-02-22 12:40:00,52.4,36.7,30.13,WSW,240,6.0,8.0,55,0.00,,,0.00,814,WeatherCatV1.11B39,2013-02-22 19:40:00,
2013-02-22 12:45:00,52.8,37.1,30.13,WNW,300,3.0,7.0,55,0.00,,,0.00,817,WeatherCatV1.11B39,2013-02-22 19:45:00,
2013-02-22 12:50:00,53.0,36.3,30.13,West,267,3.0,10.0,53,0.00,,,0.00,816,WeatherCatV1.11B39,2013-02-22 19:50:00,
2013-02-22 12:55:00,53.2,36.0,30.12,West,267,5.0,7.0,52,0.00,,,0.00,817,WeatherCatV1.11B39,2013-02-22 19:55:00,
2013-02-22 13:00:00,52.3,35.2,30.12,North,1,3.0,5.0,52,0.00,,,0.00,814,WeatherCatV1.11B39,2013-02-22 20:00:00,
2013-02-22 13:05:00,53.7,36.5,30.12,WSW,242,5.0,6.0,52,0.00,,,0.00,835,WeatherCatV1.11B39,2013-02-22 20:05:00,
2013-02-22 13:10:00,54.3,36.1,30.12,SSE,166,5.0,11.0,50,0.00,,,0.00,932,WeatherCatV1.11B39,2013-02-22 20:10:00,
2013-02-22 13:15:00,54.4,35.1,30.11,SSW,201,5.0,8.0,48,0.00,,,0.00,243,WeatherCatV1.11B39,2013-02-22 20:15:00,
2013-02-22 13:20:00,53.5,33.2,30.11,NW,304,2.0,7.0,46,0.00,,,0.00,902,WeatherCatV1.11B39,2013-02-22 20:20:00,
2013-02-22 13:25:00,54.4,34.6,30.11,WSW,245,7.0,7.0,47,0.00,,,0.00,462,WeatherCatV1.11B39,2013-02-22 20:25:00,
2013-02-22 13:30:00,54.1,33.2,30.10,West,274,6.0,10.0,45,0.00,,,0.00,837,WeatherCatV1.11B39,2013-02-22 20:30:00,
2013-02-22 13:35:00,54.3,33.4,30.10,WSW,239,8.0,10.0,45,0.00,,,0.00,782,WeatherCatV1.11B39,2013-02-22 20:35:00,
2013-02-22 13:40:00,54.8,34.4,30.10,WNW,284,5.0,10.0,46,0.00,,,0.00,796,WeatherCatV1.11B39,2013-02-22 20:40:00,
2013-02-22 13:45:00,54.4,34.1,30.10,SW,223,6.0,13.0,46,0.00,,,0.00,773,WeatherCatV1.11B39,2013-02-22 20:45:00,
2013-02-22 13:50:00,54.4,33.5,30.10,SW,236,1.0,4.0,45,0.00,,,0.00,788,WeatherCatV1.11B39,2013-02-22 20:50:00,
2013-02-22 13:55:00,55.4,34.4,30.10,SW,228,9.0,11.0,45,0.00,,,0.00,795,WeatherCatV1.11B39,2013-02-22 20:55:00,
2013-02-22 14:00:00,55.1,33.0,30.09,SW,236,4.0,6.0,43,0.00,,,0.00,807,WeatherCatV1.11B39,2013-02-22 21:00:00,
2013-02-22 14:05:00,56.2,34.6,30.09,WNW,287,3.0,13.0,44,0.00,,,0.00,773,WeatherCatV1.11B39,2013-02-22 21:05:00,
2013-02-22 14:10:00,55.2,34.2,30.10,WSW,242,11.0,11.0,45,0.00,,,0.00,749,WeatherCatV1.11B39,2013-02-22 21:10:00,
2013-02-22 14:15:00,55.6,34.0,30.09,WSW,251,9.0,13.0,44,0.00,,,0.00,729,WeatherCatV1.11B39,2013-02-22 21:15:00,
2013-02-22 14:20:00,55.1,34.1,30.09,SW,224,7.0,10.0,45,0.00,,,0.00,714,WeatherCatV1.11B39,2013-02-22 21:20:00,
2013-02-22 14:25:00,54.5,31.9,30.10,SW,218,8.0,14.0,42,0.00,,,0.00,705,WeatherCatV1.11B39,2013-02-22 21:25:00,
2013-02-22 14:30:00,54.4,31.8,30.09,West,266,7.0,10.0,42,0.00,,,0.00,694,WeatherCatV1.11B39,2013-02-22 21:30:00,
2013-02-22 14:35:00,55.4,32.7,30.09,WSW,249,9.0,11.0,42,0.00,,,0.00,677,WeatherCatV1.11B39,2013-02-22 21:35:00,
2013-02-22 14:40:00,54.6,32.0,30.09,West,280,9.0,11.0,42,0.00,,,0.00,670,WeatherCatV1.11B39,2013-02-22 21:40:00,
2013-02-22 14:45:00,54.8,32.7,30.09,SSW,209,10.0,14.0,43,0.00,,,0.00,654,WeatherCatV1.11B39,2013-02-22 21:45:00,
2013-02-22 14:50:00,55.1,33.6,30.10,SW,230,8.0,14.0,44,0.00,,,0.00,640,WeatherCatV1.11B39,2013-02-22 21:50:00,
2013-02-22 14:55:00,55.2,33.7,30.09,West,271,10.0,12.0,44,0.00,,,0.00,622,WeatherCatV1.11B39,2013-02-22 21:55:00,
2013-02-22 15:00:00,54.8,32.7,30.09,WSW,245,10.0,10.0,43,0.00,,,0.00,615,WeatherCatV1.11B39,2013-02-22 22:00:00,
2013-02-22 15:05:00,55.6,32.9,30.09,WNW,293,10.0,13.0,42,0.00,,,0.00,599,WeatherCatV1.11B39,2013-02-22 22:05:00,
2013-02-22 15:10:00,55.0,32.3,30.09,WSW,246,8.0,9.0,42,0.00,,,0.00,585,WeatherCatV1.11B39,2013-02-22 22:10:00,
2013-02-22 15:15:00,54.8,32.2,30.09,WSW,252,9.0,13.0,42,0.00,,,0.00,578,WeatherCatV1.11B39,2013-02-22 22:15:00,
2013-02-22 15:20:00,54.9,31.0,30.09,WSW,251,11.0,11.0,40,0.00,,,0.00,563,WeatherCatV1.11B39,2013-02-22 22:20:00,
2013-02-22 15:25:00,55.0,31.7,30.09,WSW,253,11.0,14.0,41,0.00,,,0.00,550,WeatherCatV1.11B39,2013-02-22 22:25:00,
2013-02-22 15:30:00,55.2,31.3,30.09,SW,229,12.0,13.0,40,0.00,,,0.00,533,WeatherCatV1.11B39,2013-02-22 22:30:00,
2013-02-22 15:35:00,54.8,30.3,30.09,West,274,11.0,12.0,39,0.00,,,0.00,517,WeatherCatV1.11B39,2013-02-22 22:35:00,
2013-02-22 15:40:00,54.8,31.6,30.09,WSW,240,6.0,14.0,41,0.00,,,0.00,499,WeatherCatV1.11B39,2013-02-22 22:40:00,
2013-02-22 15:45:00,54.3,30.5,30.09,West,276,8.0,16.0,40,0.00,,,0.00,487,WeatherCatV1.11B39,2013-02-22 22:45:00,
2013-02-22 15:50:00,54.4,31.8,30.09,SW,229,5.0,13.0,42,0.00,,,0.00,475,WeatherCatV1.11B39,2013-02-22 22:50:00,
2013-02-22 15:55:00,54.8,31.6,30.09,WSW,249,10.0,14.0,41,0.00,,,0.00,459,WeatherCatV1.11B39,2013-02-22 22:55:00,
2013-02-22 16:00:00,54.5,30.7,30.09,SW,234,6.0,12.0,40,0.00,,,0.00,439,WeatherCatV1.11B39,2013-02-22 23:00:00,
2013-02-22 16:05:00,54.5,31.9,30.09,SW,220,8.0,16.0,42,0.00,,,0.00,424,WeatherCatV1.11B39,2013-02-22 23:05:00,
2013-02-22 16:10:00,54.5,30.7,30.09,WSW,242,12.0,15.0,40,0.00,,,0.00,404,WeatherCatV1.11B39,2013-02-22 23:10:00,
2013-02-22 16:15:00,54.1,31.5,30.09,WNW,292,6.0,10.0,42,0.00,,,0.00,388,WeatherCatV1.11B39,2013-02-22 23:15:00,
2013-02-22 16:21:00,54.1,31.5,30.08,NW,313,12.0,16.0,42,0.00,,,0.00,374,WeatherCatV1.11B39,2013-02-22 23:21:00,
2013-02-22 16:26:00,54.0,30.8,30.08,West,278,11.0,14.0,41,0.00,,,0.00,357,WeatherCatV1.11B39,2013-02-22 23:26:00,
2013-02-22 16:31:00,54.0,30.2,30.08,WSW,253,9.0,11.0,40,0.00,,,0.00,343,WeatherCatV1.11B39,2013-02-22 23:31:00,
2013-02-22 16:36:00,54.0,32.0,30.08,West,266,8.0,12.0,43,0.00,,,0.00,320,WeatherCatV1.11B39,2013-02-22 23:36:00,
2013-02-22 16:41:00,53.9,31.9,30.08,WSW,249,8.0,13.0,43,0.00,,,0.00,299,WeatherCatV1.11B39,2013-02-22 23:41:00,
2013-02-22 16:46:00,53.8,31.8,30.08,WSW,247,9.0,12.0,43,0.00,,,0.00,283,WeatherCatV1.11B39,2013-02-22 23:46:00,
2013-02-22 16:51:00,53.5,31.6,30.08,WSW,248,5.0,13.0,43,0.00,,,0.00,267,WeatherCatV1.11B39,2013-02-22 23:51:00,
2013-02-22 16:56:00,53.6,31.7,30.08,SW,228,9.0,11.0,43,0.00,,,0.00,244,WeatherCatV1.11B39,2013-02-22 23:56:00,
2013-02-22 17:01:00,53.5,31.0,30.08,West,272,7.0,14.0,42,0.00,,,0.00,225,WeatherCatV1.11B39,2013-02-23 00:01:00,
2013-02-22 17:06:00,53.2,31.3,30.08,WSW,239,5.0,11.0,43,0.00,,,0.00,204,WeatherCatV1.11B39,2013-02-23 00:06:00,
2013-02-22 17:11:00,53.4,31.5,30.08,West,276,6.0,11.0,43,0.00,,,0.00,179,WeatherCatV1.11B39,2013-02-23 00:11:00,
2013-02-22 17:16:00,53.2,30.7,30.08,West,267,5.0,12.0,42,0.00,,,0.00,158,WeatherCatV1.11B39,2013-02-23 00:16:00,
2013-02-22 17:21:00,52.9,30.4,30.08,WSW,238,7.0,11.0,42,0.00,,,0.00,139,WeatherCatV1.11B39,2013-02-23 00:21:00,
2013-02-22 17:26:00,52.8,30.9,30.08,WNW,284,6.0,9.0,43,0.00,,,0.00,116,WeatherCatV1.11B39,2013-02-23 00:26:00,
2013-02-22 17:31:00,52.6,30.2,30.09,WSW,246,9.0,11.0,42,0.00,,,0.00,95,WeatherCatV1.11B39,2013-02-23 00:31:00,
2013-02-22 17:36:00,52.4,30.6,30.09,West,271,11.0,11.0,43,0.00,,,0.00,74,WeatherCatV1.11B39,2013-02-23 00:36:00,
2013-02-22 17:41:00,52.2,30.4,30.09,WSW,257,6.0,9.0,43,0.00,,,0.00,58,WeatherCatV1.11B39,2013-02-23 00:41:00,
2013-02-22 17:46:00,52.1,30.9,30.09,WNW,282,8.0,11.0,44,0.00,,,0.00,37,WeatherCatV1.11B39,2013-02-23 00:46:00,
2013-02-22 17:51:00,51.9,31.8,30.09,West,280,7.0,9.0,46,0.00,,,0.00,30,WeatherCatV1.11B39,2013-02-23 00:51:00,
2013-02-22 17:56:00,51.4,31.9,30.09,West,267,7.0,11.0,47,0.00,,,0.00,21,WeatherCatV1.11B39,2013-02-23 00:56:00,
2013-02-22 18:01:00,51.0,32.0,30.09,WSW,257,6.0,11.0,48,0.00,,,0.00,14,WeatherCatV1.11B39,2013-02-23 01:01:00,
2013-02-22 18:06:00,50.7,32.2,30.10,WSW,248,7.0,8.0,49,0.00,,,0.00,12,WeatherCatV1.11B39,2013-02-23 01:06:00,
2013-02-22 18:11:00,50.4,32.0,30.10,WSW,251,3.0,8.0,49,0.00,,,0.00,9,WeatherCatV1.11B39,2013-02-23 01:11:00,
2013-02-22 18:16:00,50.1,31.7,30.10,West,267,5.0,9.0,49,0.00,,,0.00,5,WeatherCatV1.11B39,2013-02-23 01:16:00,
2013-02-22 18:21:00,49.8,31.4,30.10,WSW,245,5.0,9.0,49,0.00,,,0.00,0,WeatherCatV1.11B39,2013-02-23 01:21:00,
2013-02-22 18:26:00,49.6,31.2,30.10,West,279,7.0,9.0,49,0.00,,,0.00,0,WeatherCatV1.11B39,2013-02-23 01:26:00,
2013-02-22 18:31:00,49.2,30.9,30.10,West,270,4.0,8.0,49,0.00,,,0.00,0,WeatherCatV1.11B39,2013-02-23 01:31:00,
2013-02-22 18:36:00,48.9,30.1,30.10,WSW,255,6.0,7.0,48,0.00,,,0.00,0,WeatherCatV1.11B39,2013-02-23 01:36:00,
2013-02-22 18:41:00,48.7,29.9,30.11,West,279,4.0,5.0,48,0.00,,,0.00,0,WeatherCatV1.11B39,2013-02-23 01:41:00,
2013-02-22 18:46:00,48.5,29.7,30.11,West,280,2.0,4.0,48,0.00,,,0.00,0,WeatherCatV1.11B39,2013-02-23 01:46:00,
2013-02-22 18:51:00,48.2,29.4,30.11,WNW,282,3.0,5.0,48,0.00,,,0.00,0,WeatherCatV1.11B39,2013-02-23 01:51:00,
2013-02-22 18:56:00,48.1,29.3,30.11,WNW,286,3.0,5.0,48,0.00,,,0.00,0,WeatherCatV1.11B39,2013-02-23 01:56:00,
2013-02-22 19:01:00,47.9,29.2,30.12,West,276,4.0,6.0,48,0.00,,,0.00,0,WeatherCatV1.11B39,2013-02-23 02:01:00,
2013-02-22 19:06:00,47.7,29.0,30.12,West,280,3.0,4.0,48,0.00,,,0.00,0,WeatherCatV1.11B39,2013-02-23 02:06:00,
2013-02-22 19:11:00,47.2,29.0,30.12,West,280,1.0,2.0,49,0.00,,,0.00,0,WeatherCatV1.11B39,2013-02-23 02:11:00,
2013-02-22 19:16:00,46.7,29.5,30.13,West,280,0.0,1.0,51,0.00,,,0.00,0,WeatherCatV1.11B39,2013-02-23 02:16:00,
2013-02-22 19:21:00,46.1,29.5,30.13,West,280,1.0,2.0,52,0.00,,,0.00,0,WeatherCatV1.11B39,2013-02-23 02:21:00,
2013-02-22 19:26:00,45.8,29.7,30.13,West,280,0.0,1.0,53,0.00,,,0.00,0,WeatherCatV1.11B39,2013-02-23 02:26:00,
2013-02-22 19:31:00,45.7,28.6,30.13,West,280,0.0,1.0,51,0.00,,,0.00,0,WeatherCatV1.11B39,2013-02-23 02:31:00,
2013-02-22 19:36:00,45.7,28.6,30.13,West,280,0.0,1.0,51,0.00,,,0.00,0,WeatherCatV1.11B39,2013-02-23 02:36:00,
2013-02-22 19:41:00,45.4,30.6,30.14,West,280,0.0,0.0,56,0.00,,,0.00,0,WeatherCatV1.11B39,2013-02-23 02:41:00,
2013-02-22 19:46:00,44.7,31.3,30.14,West,280,0.0,2.0,59,0.00,,,0.00,0,WeatherCatV1.11B39,2013-02-23 02:46:00,
2013-02-22 19:51:00,44.0,31.0,30.13,West,280,0.0,1.0,60,0.00,,,0.00,0,WeatherCatV1.11B39,2013-02-23 02:51:00,
2013-02-22 19:56:00,43.6,31.0,30.14,West,280,1.0,1.0,61,0.00,,,0.00,0,WeatherCatV1.11B39,2013-02-23 02:56:00,
2013-02-22 20:01:00,43.3,31.2,30.14,West,280,1.0,2.0,62,0.00,,,0.00,0,WeatherCatV1.11B39,2013-02-23 03:01:00,
2013-02-22 20:06:00,43.2,31.5,30.14,West,280,1.0,2.0,63,0.00,,,0.00,0,WeatherCatV1.11B39,2013-02-23 03:06:00,
2013-02-22 20:11:00,43.1,31.8,30.14,West,280,0.0,2.0,64,0.00,,,0.00,0,WeatherCatV1.11B39,2013-02-23 03:11:00,
2013-02-22 20:16:00,43.0,31.7,30.14,West,280,2.0,2.0,64,0.00,,,0.00,0,WeatherCatV1.11B39,2013-02-23 03:16:00,
2013-02-22 20:21:00,42.9,31.6,30.14,West,280,1.0,2.0,64,0.00,,,0.00,0,WeatherCatV1.11B39,2013-02-23 03:21:00,
2013-02-22 20:26:00,42.7,31.8,30.14,West,280,1.0,2.0,65,0.00,,,0.00,0,WeatherCatV1.11B39,2013-02-23 03:26:00,
2013-02-22 20:31:00,42.5,31.6,30.15,West,281,2.0,2.0,65,0.00,,,0.00,0,WeatherCatV1.11B39,2013-02-23 03:31:00,
2013-02-22 20:36:00,42.4,31.5,30.14,WNW,282,1.0,3.0,65,0.00,,,0.00,0,WeatherCatV1.11B39,2013-02-23 03:36:00,
2013-02-22 20:41:00,42.2,31.7,30.14,WNW,282,0.0,1.0,66,0.00,,,0.00,0,WeatherCatV1.11B39,2013-02-23 03:41:00,
2013-02-22 20:46:00,41.9,31.8,30.15,WNW,282,1.0,1.0,67,0.00,,,0.00,0,WeatherCatV1.11B39,2013-02-23 03:46:00,
2013-02-22 20:51:00,41.6,31.8,30.15,WNW,282,1.0,1.0,68,0.00,,,0.00,0,WeatherCatV1.11B39,2013-02-23 03:51:00,
2013-02-22 20:56:00,41.2,31.8,30.15,WNW,283,2.0,2.0,69,0.00,,,0.00,0,WeatherCatV1.11B39,2013-02-23 03:56:00,
2013-02-22 21:01:00,41.0,32.0,30.15,WNW,283,1.0,2.0,70,0.00,,,0.00,0,WeatherCatV1.11B39,2013-02-23 04:01:00,
2013-02-22 21:06:00,41.0,32.3,30.15,North,5,0.0,1.0,71,0.00,,,0.00,0,WeatherCatV1.11B39,2013-02-23 04:06:00,
2013-02-22 21:11:00,41.1,32.4,30.15,North,5,0.0,2.0,71,0.00,,,0.00,0,WeatherCatV1.11B39,2013-02-23 04:11:00,
2013-02-22 21:16:00,41.2,31.8,30.16,North,5,3.0,3.0,69,0.00,,,0.00,0,WeatherCatV1.11B39,2013-02-23 04:16:00,
2013-02-22 21:21:00,41.4,31.3,30.16,NNE,20,2.0,3.0,67,0.00,,,0.00,0,WeatherCatV1.11B39,2013-02-23 04:21:00,
2013-02-22 21:26:00,41.7,31.6,30.16,NNE,20,0.0,1.0,67,0.00,,,0.00,0,WeatherCatV1.11B39,2013-02-23 04:26:00,
2013-02-22 21:31:00,41.7,31.2,30.16,NNE,20,1.0,3.0,66,0.00,,,0.00,0,WeatherCatV1.11B39,2013-02-23 04:31:00,
2013-02-22 21:36:00,41.4,31.3,30.16,NNE,20,0.0,2.0,67,0.00,,,0.00,0,WeatherCatV1.11B39,2013-02-23 04:36:00,
2013-02-22 21:41:00,41.1,31.4,30.16,NNE,20,1.0,2.0,68,0.00,,,0.00,0,WeatherCatV1.11B39,2013-02-23 04:41:00,
2013-02-22 21:46:00,41.1,31.0,30.16,NE,34,2.0,3.0,67,0.00,,,0.00,0,WeatherCatV1.11B39,2013-02-23 04:46:00,
2013-02-22 21:51:00,41.2,31.1,30.17,ENE,67,2.0,3.0,67,0.00,,,0.00,0,WeatherCatV1.11B39,2013-02-23 04:51:00,
2013-02-22 21:56:00,41.4,31.3,30.17,ENE,68,0.0,2.0,67,0.00,,,0.00,0,WeatherCatV1.11B39,2013-02-23 04:56:00,
2013-02-22 22:00:00,41.3,31.2,30.17,ENE,69,1.0,2.0,67,0.00,,,0.00,0,WeatherCatV1.11B39,2013-02-23 05:00:00,
2013-02-22 22:05:00,41.1,31.0,30.17,ENE,69,2.0,2.0,67,0.00,,,0.00,0,WeatherCatV1.11B39,2013-02-23 05:05:00,
2013-02-22 22:10:00,41.0,30.9,30.17,East,89,2.0,7.0,67,0.00,,,0.00,0,WeatherCatV1.11B39,2013-02-23 05:10:00,
2013-02-22 22:15:00,41.4,30.9,30.17,East,79,2.0,7.0,66,0.00,,,0.00,0,WeatherCatV1.11B39,2013-02-23 05:15:00,
2013-02-22 22:20:00,41.9,31.0,30.17,East,98,2.0,6.0,65,0.00,,,0.00,0,WeatherCatV1.11B39,2013-02-23 05:20:00,
2013-02-22 22:25:00,42.3,31.4,30.17,ESE,120,5.0,5.0,65,0.00,,,0.00,0,WeatherCatV1.11B39,2013-02-23 05:25:00,
2013-02-22 22:30:00,42.3,31.4,30.17,ESE,117,3.0,8.0,65,0.00,,,0.00,0,WeatherCatV1.11B39,2013-02-23 05:30:00,
2013-02-22 22:35:00,42.4,31.5,30.17,ESE,109,5.0,6.0,65,0.00,,,0.00,0,WeatherCatV1.11B39,2013-02-23 05:35:00,
2013-02-22 22:40:00,42.5,31.2,30.16,SSE,155,2.0,7.0,64,0.00,,,0.00,0,WeatherCatV1.11B39,2013-02-23 05:40:00,
2013-02-22 22:45:00,42.6,31.3,30.16,ESE,116,5.0,6.0,64,0.00,,,0.00,0,WeatherCatV1.11B39,2013-02-23 05:45:00,
2013-02-22 22:50:00,42.5,31.6,30.17,SE,130,3.0,4.0,65,0.00,,,0.00,0,WeatherCatV1.11B39,2013-02-23 05:50:00,
2013-02-22 22:55:00,42.4,31.1,30.17,ESE,121,4.0,4.0,64,0.00,,,0.00,0,WeatherCatV1.11B39,2013-02-23 05:55:00,
2013-02-22 23:00:00,42.3,31.4,30.17,ESE,121,1.0,4.0,65,0.00,,,0.00,0,WeatherCatV1.11B39,2013-02-23 06:00:00,
2013-02-22 23:05:00,42.3,31.4,30.16,SE,127,3.0,6.0,65,0.00,,,0.00,0,WeatherCatV1.11B39,2013-02-23 06:05:00,
2013-02-22 23:10:00,42.1,31.2,30.17,ESE,123,3.0,3.0,65,0.00,,,0.00,0,WeatherCatV1.11B39,2013-02-23 06:10:00,
2013-02-22 23:15:00,42.0,30.7,30.17,ESE,120,3.0,3.0,64,0.00,,,0.00,0,WeatherCatV1.11B39,2013-02-23 06:15:00,
2013-02-22 23:17:00,42.0,30.7,30.17,ESE,122,4.0,4.0,64,0.00,,,0.00,0,WeatherCatV1.11B39,2013-02-23 06:17:00,
2013-02-22 23:22:00,41.8,30.5,30.17,ESE,110,3.0,7.0,64,0.00,,,0.00,0,WeatherCatV1.11B39,2013-02-23 06:22:00,
2013-02-22 23:27:00,41.7,30.4,30.17,ESE,112,4.0,5.0,64,0.00,,,0.00,0,WeatherCatV1.11B39,2013-02-23 06:27:00,
2013-02-22 23:32:00,41.6,30.0,30.17,East,89,6.0,6.0,63,0.00,,,0.00,0,WeatherCatV1.11B39,2013-02-23 06:32:00,
2013-02-22 23:37:00,41.6,30.0,30.17,East,99,3.0,3.0,63,0.00,,,0.00,0,WeatherCatV1.11B39,2013-02-23 06:37:00,
2013-02-22 23:42:00,41.6,30.0,30.17,East,99,0.0,1.0,63,0.00,,,0.00,0,WeatherCatV1.11B39,2013-02-23 06:42:00,
2013-02-22 23:47:00,41.0,29.4,30.17,East,99,0.0,2.0,63,0.00,,,0.00,0,WeatherCatV1.11B39,2013-02-23 06:47:00,
2013-02-22 23:52:00,40.3,29.9,30.17,East,99,0.0,0.0,66,0.00,,,0.00,0,WeatherCatV1.11B39,2013-02-23 06:52:00,
2013-02-22 23:57:00,39.4,29.7,30.17,East,99,0.0,0.0,68,0.00,,,0.00,0,WeatherCatV1.11B39,2013-02-23 06:57:00,